| time (UTC) | temp F | wind direction | speed knots | gust knots | rain 1hr in | rain 24hr in | rain mn in | humidity % | barometer mb |
| 20260510171505 | 85 | 355 | 0.9 | 3.5 | 0.00 | 0.42 | 0.00 | 72 | 1015.5 |
| 20260510171004 | 85 | 360 | 0.9 | 5.2 | 0.00 | 0.42 | 0.00 | 72 | 1015.5 |
| 20260510170505 | 86 | 29 | 0.9 | 5.2 | 0.00 | 0.42 | 0.00 | 70 | 1015.5 |
| 20260510170006 | 87 | 329 | 1.7 | 3.5 | 0.00 | 0.42 | 0.00 | 70 | 1015.7 |
| 20260510165503 | 87 | 319 | 0.0 | 4.3 | 0.00 | 0.42 | 0.00 | 70 | 1015.6 |
| 20260510165006 | 87 | 167 | 0.9 | 4.3 | 0.00 | 0.42 | 0.00 | 68 | 1015.6 |
| 20260510164507 | 87 | 297 | 0.9 | 3.5 | 0.00 | 0.42 | 0.00 | 69 | 1015.7 |
| 20260510164003 | 86 | 334 | 0.9 | 3.5 | 0.00 | 0.42 | 0.00 | 70 | 1015.8 |
| 20260510163503 | 86 | 180 | 0.0 | 3.5 | 0.00 | 0.42 | 0.00 | 70 | 1016.0 |
| 20260510163004 | 86 | 140 | 0.9 | 3.5 | 0.00 | 0.42 | 0.00 | 72 | 1016.2 |
| 20260510162504 | 85 | 128 | 0.9 | 4.3 | 0.00 | 0.42 | 0.00 | 69 | 1016.0 |
| 20260510162003 | 84 | 188 | 0.0 | 4.3 | 0.00 | 0.42 | 0.00 | 73 | 1016.2 |
| 20260510161505 | 84 | 27 | 0.0 | 3.5 | 0.00 | 0.42 | 0.00 | 75 | 1016.1 |
| 20260510161003 | 84 | 175 | 0.0 | 1.7 | 0.00 | 0.42 | 0.00 | 76 | 1016.3 |
| 20260510160503 | 84 | 276 | 0.0 | 4.3 | 0.00 | 0.42 | 0.00 | 79 | 1016.3 |
| 20260510160010 | 83 | 65 | 0.9 | 4.3 | 0.00 | 0.42 | 0.00 | 79 | 1016.3 |
| 20260510155503 | 83 | 146 | 1.7 | 4.3 | 0.00 | 0.42 | 0.00 | 78 | 1016.2 |
| 20260510155003 | 83 | 20 | 0.0 | 3.5 | 0.00 | 0.42 | 0.00 | 80 | 1016.3 |
| 20260510154503 | 83 | 296 | 0.0 | 5.2 | 0.00 | 0.42 | 0.00 | 80 | 1016.3 |
| 20260510154002 | 83 | 199 | 2.6 | 5.2 | 0.00 | 0.42 | 0.00 | 80 | 1016.4 |
| 20260510153505 | 83 | 167 | 0.9 | 4.3 | 0.00 | 0.42 | 0.00 | 80 | 1016.5 |
| 20260510153004 | 83 | 182 | 1.7 | 4.3 | 0.00 | 0.42 | 0.00 | 81 | 1016.5 |
| 20260510152503 | 82 | 298 | 0.0 | 5.2 | 0.00 | 0.42 | 0.00 | 81 | 1016.4 |
| 20260510152003 | 82 | 186 | 0.9 | 5.2 | 0.00 | 0.42 | 0.00 | 81 | 1016.4 |
| 20260510151503 | 82 | 315 | 0.0 | 5.2 | 0.00 | 0.42 | 0.00 | 83 | 1016.3 |
| 20260510151005 | 82 | 191 | 0.0 | 2.6 | 0.00 | 0.42 | 0.00 | 83 | 1016.4 |
| 20260510150504 | 82 | 311 | 0.0 | 2.6 | 0.00 | 0.42 | 0.00 | 83 | 1016.3 |
| 20260510150006 | 81 | 360 | 0.0 | 2.6 | 0.00 | 0.42 | 0.00 | 86 | 1016.2 |
| 20260510145504 | 80 | 150 | 0.0 | 2.6 | 0.00 | 0.42 | 0.00 | 87 | 1016.2 |
| 20260510145003 | 80 | 296 | 0.9 | 2.6 | 0.00 | 0.42 | 0.00 | 88 | 1016.2 |
| 20260510144503 | 79 | 213 | 0.0 | 1.7 | 0.00 | 0.42 | 0.00 | 88 | 1016.2 |
| 20260510144003 | 79 | 273 | 0.0 | 1.7 | 0.00 | 0.42 | 0.00 | 88 | 1016.1 |
| 20260510143503 | 79 | 171 | 0.0 | 3.5 | 0.00 | 0.42 | 0.00 | 89 | 1016.2 |
| 20260510143003 | 79 | 209 | 0.0 | 3.5 | 0.00 | 0.42 | 0.00 | 90 | 1016.2 |
| 20260510142505 | 79 | 217 | 0.0 | 2.6 | 0.00 | 0.42 | 0.00 | 92 | 1016.2 |
| 20260510142003 | 78 | 290 | 0.0 | 2.6 | 0.00 | 0.42 | 0.00 | 93 | 1016.1 |
| 20260510141503 | 77 | 340 | 0.0 | 2.6 | 0.00 | 0.42 | 0.00 | 95 | 1016.1 |
| 20260510141002 | 77 | 291 | 0.0 | 2.6 | 0.00 | 0.42 | 0.00 | 97 | 1016.1 |
| 20260510140507 | 76 | 310 | 0.0 | 4.3 | 0.00 | 0.42 | 0.00 | 98 | 1015.9 |
| 20260510140005 | 76 | 133 | 0.0 | 4.3 | 0.00 | 0.42 | 0.00 | 98 | 1015.9 |
| 20260510135505 | 76 | 178 | 0.0 | 1.7 | 0.00 | 0.42 | 0.00 | 99 | 1015.7 |
| 20260510135004 | 75 | 182 | 0.9 | 3.5 | 0.00 | 0.42 | 0.00 | 99 | 1015.8 |
| 20260510134504 | 75 | 141 | 0.0 | 2.6 | 0.00 | 0.42 | 0.00 | 99 | 1015.7 |
| 20260510134003 | 75 | 177 | 0.0 | 1.7 | 0.00 | 0.42 | 0.00 | 99 | 1015.7 |
| 20260510133503 | 75 | 192 | 0.0 | 1.7 | 0.00 | 0.42 | 0.00 | 99 | 1015.6 |
| 20260510133003 | 74 | 311 | 0.0 | 0.0 | 0.00 | 0.42 | 0.00 | 99 | 1015.6 |
| 20260510132504 | 74 | 268 | 0.0 | 0.0 | 0.00 | 0.42 | 0.00 | 99 | 1015.7 |
| 20260510132004 | 74 | 238 | 0.0 | 0.0 | 0.00 | 0.42 | 0.00 | 99 | 1015.7 |
| 20260510131504 | 74 | 167 | 0.0 | 0.0 | 0.00 | 0.42 | 0.00 | 99 | 1015.6 |
| 20260510131003 | 74 | 159 | 0.0 | 0.0 | 0.00 | 0.42 | 0.00 | 99 | 1015.5 |
| 20260510130503 | 74 | 159 | 0.0 | 0.0 | 0.00 | 0.42 | 0.00 | 99 | 1015.5 |
| 20260510130012 | 74 | 122 | 0.0 | 0.0 | 0.00 | 0.42 | 0.00 | 99 | 1015.5 |
| 20260510125503 | 73 | 52 | 0.0 | 0.0 | 0.00 | 0.42 | 0.00 | 99 | 1015.5 |
| 20260510125004 | 73 | 48 | 0.0 | 0.0 | 0.00 | 0.42 | 0.00 | 99 | 1015.5 |
| 20260510124504 | 73 | 48 | 0.0 | 0.0 | 0.00 | 0.42 | 0.00 | 99 | 1015.4 |
| 20260510124003 | 73 | 48 | 0.0 | 0.0 | 0.00 | 0.42 | 0.00 | 99 | 1015.5 |
| 20260510123505 | 72 | 48 | 0.0 | 0.0 | 0.00 | 0.42 | 0.00 | 99 | 1015.5 |
| 20260510123003 | 72 | 48 | 0.0 | 0.0 | 0.00 | 0.42 | 0.00 | 99 | 1015.3 |
| 20260510122503 | 72 | 48 | 0.0 | 0.0 | 0.00 | 0.42 | 0.00 | 99 | 1015.3 |
| 20260510122003 | 71 | 48 | 0.0 | 0.0 | 0.00 | 0.42 | 0.00 | 99 | 1015.3 |
| 20260510121505 | 71 | 48 | 0.0 | 0.0 | 0.00 | 0.42 | 0.00 | 99 | 1015.1 |
| 20260510121004 | 71 | 48 | 0.0 | 0.0 | 0.00 | 0.42 | 0.00 | 99 | 1015.0 |
| 20260510120507 | 70 | 48 | 0.0 | 0.0 | 0.00 | 0.42 | 0.00 | 99 | 1014.9 |
| 20260510120005 | 70 | 48 | 0.0 | 0.0 | 0.00 | 0.42 | 0.00 | 99 | 1014.9 |
| 20260510115505 | 69 | 48 | 0.0 | 0.0 | 0.00 | 0.42 | 0.00 | 99 | 1014.8 |
| 20260510115004 | 69 | 48 | 0.0 | 0.0 | 0.00 | 0.42 | 0.00 | 99 | 1014.8 |
| 20260510114502 | 69 | 48 | 0.0 | 0.0 | 0.00 | 0.42 | 0.00 | 99 | 1014.7 |
| 20260510114001 | 68 | 48 | 0.0 | 0.0 | 0.00 | 0.42 | 0.00 | 99 | 1014.6 |
| 20260510113502 | 68 | 48 | 0.0 | 0.0 | 0.00 | 0.42 | 0.00 | 99 | 1014.6 |
| 20260510113004 | 68 | 48 | 0.0 | 0.0 | 0.00 | 0.42 | 0.00 | 99 | 1014.5 |
| 20260510112502 | 68 | 48 | 0.0 | 0.0 | 0.00 | 0.42 | 0.00 | 99 | 1014.5 |
| 20260510112002 | 68 | 48 | 0.0 | 0.0 | 0.00 | 0.42 | 0.00 | 98 | 1014.5 |
| 20260510111502 | 68 | 48 | 0.0 | 0.0 | 0.00 | 0.42 | 0.00 | 98 | 1014.3 |
| 20260510111004 | 68 | 49 | 0.0 | 0.0 | 0.00 | 0.42 | 0.00 | 98 | 1014.2 |
| 20260510110502 | 68 | 49 | 0.0 | 0.0 | 0.00 | 0.42 | 0.00 | 98 | 1014.2 |
| 20260510110013 | 68 | 49 | 0.0 | 0.0 | 0.00 | 0.42 | 0.00 | 98 | 1014.2 |
| 20260510105504 | 68 | 49 | 0.0 | 0.0 | 0.00 | 0.42 | 0.00 | 98 | 1014.2 |
| 20260510105002 | 68 | 49 | 0.0 | 0.0 | 0.00 | 0.42 | 0.00 | 98 | 1014.1 |
| 20260510104502 | 68 | 49 | 0.0 | 0.0 | 0.00 | 0.42 | 0.00 | 98 | 1013.9 |
| 20260510104002 | 68 | 49 | 0.0 | 0.0 | 0.00 | 0.42 | 0.00 | 98 | 1014.0 |
| 20260510103502 | 68 | 49 | 0.0 | 0.0 | 0.00 | 0.42 | 0.00 | 98 | 1013.9 |
| 20260510103002 | 68 | 49 | 0.0 | 0.0 | 0.00 | 0.42 | 0.00 | 98 | 1013.7 |
| 20260510102504 | 68 | 49 | 0.0 | 0.0 | 0.00 | 0.42 | 0.00 | 98 | 1013.7 |
| 20260510102005 | 68 | 49 | 0.0 | 0.0 | 0.00 | 0.42 | 0.00 | 98 | 1013.6 |
| 20260510101502 | 68 | 49 | 0.0 | 0.0 | 0.00 | 0.42 | 0.00 | 98 | 1013.7 |
| 20260510101002 | 68 | 49 | 0.0 | 0.0 | 0.00 | 0.42 | 0.00 | 98 | 1013.4 |
| 20260510100502 | 68 | 49 | 0.0 | 0.0 | 0.00 | 0.42 | 0.00 | 98 | 1013.5 |
| 20260510100006 | 68 | 49 | 0.0 | 0.0 | 0.00 | 0.42 | 0.00 | 98 | 1013.5 |
| 20260510095502 | 68 | 49 | 0.0 | 0.0 | 0.00 | 0.42 | 0.00 | 98 | 1013.4 |
| 20260510095001 | 68 | 49 | 0.0 | 0.0 | 0.00 | 0.42 | 0.00 | 98 | 1013.5 |
| 20260510094504 | 68 | 49 | 0.0 | 0.0 | 0.00 | 0.42 | 0.00 | 98 | 1013.4 |
| 20260510094002 | 68 | 49 | 0.0 | 0.0 | 0.00 | 0.42 | 0.00 | 98 | 1013.4 |
| 20260510093502 | 69 | 49 | 0.0 | 0.0 | 0.00 | 0.42 | 0.00 | 98 | 1013.3 |
| 20260510093002 | 69 | 49 | 0.0 | 0.0 | 0.00 | 0.42 | 0.00 | 98 | 1013.2 |
| 20260510092502 | 69 | 49 | 0.0 | 0.0 | 0.00 | 0.42 | 0.00 | 98 | 1013.3 |
| 20260510092001 | 69 | 49 | 0.0 | 0.0 | 0.00 | 0.42 | 0.00 | 98 | 1013.4 |
| 20260510091505 | 69 | 49 | 0.0 | 0.0 | 0.00 | 0.42 | 0.00 | 98 | 1013.3 |
| 20260510091002 | 69 | 49 | 0.0 | 0.0 | 0.00 | 0.42 | 0.00 | 98 | 1013.3 |
| 20260510090502 | 69 | 49 | 0.0 | 0.0 | 0.00 | 0.42 | 0.00 | 98 | 1013.1 |
| 20260510050006 | 70 | 49 | 0.0 | 0.0 | 0.00 | 0.42 | 0.00 | 98 | 1014.3 |
| 20260510045506 | 69 | 49 | 0.0 | 0.0 | 0.00 | 0.42 | 0.00 | 98 | 1014.4 |
| 20260510045006 | 69 | 49 | 0.0 | 0.0 | 0.00 | 0.42 | 0.00 | 98 | 1014.5 |
| 20260510044505 | 70 | 49 | 0.0 | 0.0 | 0.00 | 0.42 | 0.00 | 98 | 1014.5 |
| 20260510044005 | 70 | 49 | 0.0 | 0.0 | 0.00 | 0.42 | 0.00 | 98 | 1014.4 |
| 20260510043505 | 69 | 49 | 0.0 | 0.0 | 0.00 | 0.42 | 0.00 | 98 | 1014.3 |
| 20260510043005 | 70 | 49 | 0.0 | 0.0 | 0.00 | 0.42 | 0.00 | 98 | 1014.4 |
| 20260510042505 | 70 | 49 | 0.0 | 0.0 | 0.00 | 0.42 | 0.00 | 98 | 1014.6 |
| 20260510042005 | 70 | 49 | 0.0 | 0.0 | 0.00 | 0.42 | 0.00 | 97 | 1014.6 |
| 20260510041508 | 70 | 49 | 0.0 | 0.0 | 0.00 | 0.42 | 0.00 | 98 | 1014.6 |
| 20260510041005 | 70 | 49 | 0.0 | 0.0 | 0.00 | 0.42 | 0.00 | 97 | 1014.5 |
| 20260510040505 | 70 | 49 | 0.0 | 0.0 | 0.00 | 0.42 | 0.00 | 97 | 1014.5 |
| 20260510040010 | 70 | 49 | 0.0 | 0.0 | 0.00 | 0.42 | 0.00 | 97 | 1014.4 |
| 20260510035505 | 70 | 49 | 0.0 | 0.0 | 0.00 | 0.42 | 0.42 | 97 | 1014.5 |
| 20260510035005 | 70 | 49 | 0.0 | 0.0 | 0.00 | 0.42 | 0.42 | 97 | 1014.6 |
| 20260510034505 | 70 | 49 | 0.0 | 0.0 | 0.00 | 0.42 | 0.42 | 97 | 1014.6 |
| 20260510034008 | 70 | 49 | 0.0 | 0.0 | 0.00 | 0.42 | 0.42 | 97 | 1014.5 |
| 20260510033505 | 70 | 49 | 0.0 | 0.0 | 0.00 | 0.42 | 0.42 | 97 | 1014.6 |
| 20260510033005 | 70 | 49 | 0.0 | 0.0 | 0.00 | 0.42 | 0.42 | 97 | 1014.6 |
| 20260510032505 | 70 | 49 | 0.0 | 0.0 | 0.00 | 0.42 | 0.42 | 97 | 1014.6 |
| 20260510032005 | 71 | 49 | 0.0 | 0.0 | 0.00 | 0.42 | 0.42 | 97 | 1014.6 |
| 20260510031509 | 71 | 49 | 0.0 | 0.0 | 0.00 | 0.42 | 0.42 | 97 | 1014.5 |
| 20260510031004 | 71 | 49 | 0.0 | 0.0 | 0.00 | 0.42 | 0.42 | 97 | 1014.6 |
| 20260510030505 | 71 | 49 | 0.0 | 0.0 | 0.00 | 0.42 | 0.42 | 97 | 1014.7 |
| 20260510030006 | 71 | 49 | 0.0 | 0.0 | 0.00 | 0.42 | 0.42 | 97 | 1014.5 |
| 20260510025504 | 71 | 49 | 0.0 | 0.0 | 0.00 | 0.42 | 0.42 | 97 | 1014.3 |
| 20260510025004 | 71 | 49 | 0.0 | 0.0 | 0.00 | 0.42 | 0.42 | 97 | 1014.3 |
| 20260510024505 | 71 | 49 | 0.0 | 0.0 | 0.00 | 0.42 | 0.42 | 97 | 1014.4 |
| 20260510024006 | 71 | 49 | 0.0 | 0.0 | 0.00 | 0.42 | 0.42 | 98 | 1014.2 |
| 20260510023504 | 71 | 49 | 0.0 | 0.0 | 0.00 | 0.42 | 0.42 | 98 | 1014.2 |
| 20260510023007 | 71 | 49 | 0.0 | 0.0 | 0.00 | 0.42 | 0.42 | 97 | 1014.0 |
| 20260510022504 | 72 | 49 | 0.0 | 0.0 | 0.00 | 0.42 | 0.42 | 97 | 1014.1 |
| 20260510022004 | 72 | 49 | 0.0 | 0.0 | 0.00 | 0.42 | 0.42 | 97 | 1014.1 |
| 20260510021517 | 72 | 49 | 0.0 | 0.0 | 0.00 | 0.42 | 0.42 | 97 | 1014.1 |
| 20260510021004 | 72 | 49 | 0.0 | 0.0 | 0.00 | 0.42 | 0.42 | 97 | 1014.1 |
| 20260510020504 | 72 | 49 | 0.0 | 0.0 | 0.00 | 0.42 | 0.42 | 97 | 1014.1 |
| 20260510020006 | 72 | 49 | 0.0 | 0.0 | 0.00 | 0.42 | 0.42 | 97 | 1013.8 |
| 20260510015507 | 72 | 49 | 0.0 | 0.0 | 0.00 | 0.42 | 0.42 | 97 | 1013.9 |
| 20260510015004 | 72 | 49 | 0.0 | 0.0 | 0.00 | 0.42 | 0.42 | 97 | 1013.7 |
| 20260510014506 | 72 | 49 | 0.0 | 0.0 | 0.00 | 0.42 | 0.42 | 97 | 1013.9 |
| 20260510014004 | 72 | 49 | 0.0 | 0.0 | 0.00 | 0.42 | 0.42 | 97 | 1013.5 |
| 20260510013504 | 72 | 49 | 0.0 | 0.0 | 0.00 | 0.42 | 0.42 | 97 | 1013.5 |
| 20260510013004 | 72 | 49 | 0.0 | 0.0 | 0.00 | 0.42 | 0.42 | 97 | 1013.5 |
| 20260510012504 | 72 | 49 | 0.0 | 0.0 | 0.00 | 0.42 | 0.42 | 97 | 1013.6 |
| 20260510012006 | 72 | 49 | 0.0 | 0.0 | 0.00 | 0.42 | 0.42 | 97 | 1013.5 |
| 20260510011504 | 72 | 49 | 0.0 | 0.0 | 0.00 | 0.42 | 0.42 | 97 | 1013.5 |
| 20260510011003 | 72 | 49 | 0.0 | 0.0 | 0.00 | 0.42 | 0.42 | 97 | 1013.5 |
| 20260510010504 | 72 | 49 | 0.0 | 0.0 | 0.00 | 0.42 | 0.42 | 97 | 1013.6 |
| 20260510010006 | 72 | 49 | 0.0 | 0.0 | 0.00 | 0.42 | 0.42 | 97 | 1013.5 |
| 20260510005504 | 72 | 49 | 0.0 | 0.0 | 0.00 | 0.42 | 0.42 | 96 | 1013.5 |
| 20260510005004 | 72 | 49 | 0.0 | 0.0 | 0.00 | 0.42 | 0.42 | 97 | 1013.5 |
| 20260510004504 | 72 | 49 | 0.0 | 0.0 | 0.00 | 0.42 | 0.42 | 96 | 1013.4 |
| 20260510004004 | 72 | 49 | 0.0 | 0.0 | 0.00 | 0.42 | 0.42 | 96 | 1013.3 |
| 20260510003504 | 72 | 49 | 0.0 | 0.0 | 0.00 | 0.42 | 0.42 | 96 | 1013.3 |
| 20260510003005 | 72 | 49 | 0.0 | 0.0 | 0.00 | 0.42 | 0.42 | 96 | 1013.1 |
| 20260510002503 | 72 | 49 | 0.0 | 0.0 | 0.00 | 0.42 | 0.42 | 96 | 1013.2 |
| 20260510002006 | 73 | 49 | 0.0 | 0.0 | 0.00 | 0.42 | 0.42 | 96 | 1013.1 |
| 20260510001508 | 73 | 49 | 0.0 | 0.0 | 0.00 | 0.42 | 0.42 | 96 | 1013.1 |
| 20260510001004 | 73 | 49 | 0.0 | 0.0 | 0.00 | 0.42 | 0.42 | 96 | 1013.0 |
| 20260510000504 | 73 | 49 | 0.0 | 0.0 | 0.00 | 0.42 | 0.42 | 96 | 1013.1 |
| 20260510000006 | 73 | 49 | 0.0 | 0.0 | 0.00 | 0.42 | 0.42 | 96 | 1012.9 |
| 20260509235505 | 73 | 49 | 0.0 | 0.0 | 0.00 | 0.42 | 0.42 | 96 | 1012.8 |
| 20260509235005 | 73 | 49 | 0.0 | 0.0 | 0.00 | 0.42 | 0.42 | 96 | 1012.7 |
| 20260509234504 | 73 | 49 | 0.0 | 0.0 | 0.00 | 0.42 | 0.42 | 96 | 1012.8 |
| 20260509234006 | 73 | 49 | 0.0 | 0.0 | 0.00 | 0.42 | 0.42 | 96 | 1012.5 |
| 20260509233503 | 73 | 49 | 0.0 | 0.0 | 0.00 | 0.42 | 0.42 | 96 | 1012.7 |
| 20260509233004 | 73 | 49 | 0.0 | 0.0 | 0.00 | 0.42 | 0.42 | 96 | 1012.7 |
| 20260509232504 | 73 | 49 | 0.0 | 0.0 | 0.00 | 0.42 | 0.42 | 96 | 1012.6 |
| 20260509232007 | 73 | 49 | 0.0 | 0.0 | 0.00 | 0.42 | 0.42 | 96 | 1012.6 |
| 20260509231504 | 73 | 49 | 0.0 | 0.0 | 0.00 | 0.42 | 0.42 | 96 | 1012.6 |
| 20260509231008 | 73 | 49 | 0.0 | 0.0 | 0.00 | 0.42 | 0.42 | 96 | 1012.6 |
| 20260509230504 | 73 | 49 | 0.0 | 0.0 | 0.00 | 0.42 | 0.42 | 96 | 1012.5 |
| 20260509230009 | 73 | 49 | 0.0 | 0.0 | 0.00 | 0.42 | 0.42 | 96 | 1012.4 |
| 20260509225503 | 73 | 49 | 0.0 | 0.0 | 0.00 | 0.57 | 0.42 | 96 | 1012.4 |
| 20260509225004 | 73 | 49 | 0.0 | 0.0 | 0.00 | 0.57 | 0.42 | 96 | 1012.3 |
| 20260509224507 | 73 | 49 | 0.0 | 0.0 | 0.00 | 0.57 | 0.42 | 96 | 1012.3 |
| 20260509224004 | 73 | 49 | 0.0 | 0.0 | 0.00 | 0.57 | 0.42 | 95 | 1012.2 |
| 20260509223504 | 73 | 49 | 0.0 | 0.0 | 0.00 | 0.57 | 0.42 | 96 | 1012.2 |
| 20260509223008 | 73 | 49 | 0.0 | 0.0 | 0.00 | 0.57 | 0.42 | 96 | 1012.3 |
| 20260509222503 | 73 | 49 | 0.0 | 0.0 | 0.00 | 0.57 | 0.42 | 96 | 1012.2 |
| 20260509222008 | 73 | 49 | 0.0 | 0.0 | 0.00 | 0.57 | 0.42 | 96 | 1012.1 |
| 20260509221504 | 73 | 49 | 0.0 | 0.0 | 0.00 | 0.57 | 0.42 | 95 | 1012.1 |
| 20260509221004 | 73 | 28 | 0.0 | 0.0 | 0.00 | 0.57 | 0.42 | 96 | 1012.3 |
| 20260509220504 | 73 | 28 | 0.0 | 0.0 | 0.00 | 0.57 | 0.42 | 96 | 1012.2 |
| 20260509220009 | 73 | 28 | 0.0 | 0.0 | 0.00 | 0.57 | 0.42 | 96 | 1012.3 |
| 20260509215504 | 73 | 28 | 0.0 | 0.0 | 1.01 | 0.00 | 0.42 | 95 | 1012.4 |
| 20260509215002 | 73 | 28 | 0.0 | 0.0 | 0.00 | 1.51 | 0.42 | 96 | 1012.2 |
| 20260509214504 | 73 | 28 | 0.0 | 0.0 | 0.00 | 1.51 | 0.42 | 96 | 1012.2 |
| 20260509214003 | 73 | 28 | 0.0 | 1.7 | 0.00 | 1.51 | 0.42 | 96 | 1012.2 |
| 20260509213503 | 73 | 28 | 0.0 | 1.7 | 0.00 | 1.51 | 0.42 | 96 | 1012.3 |
| 20260509213003 | 73 | 123 | 0.0 | 0.9 | 0.00 | 1.51 | 0.42 | 96 | 1012.1 |
| 20260509212502 | 73 | 123 | 0.0 | 0.9 | 0.00 | 1.51 | 0.42 | 96 | 1012.1 |
| 20260509212002 | 73 | 51 | 0.0 | 1.7 | 0.00 | 1.51 | 0.42 | 96 | 1012.1 |
| 20260509211505 | 73 | 52 | 0.0 | 1.7 | 0.00 | 1.51 | 0.42 | 96 | 1012.4 |
| 20260509211003 | 73 | 11 | 0.0 | 1.7 | 0.00 | 1.51 | 0.42 | 96 | 1012.2 |
| 20260509210503 | 73 | 11 | 0.0 | 1.7 | 0.00 | 1.51 | 0.42 | 96 | 1012.1 |
| 20260509210007 | 73 | 325 | 0.0 | 2.6 | 0.00 | 1.51 | 0.42 | 96 | 1012.1 |
| 20260509205504 | 73 | 313 | 0.0 | 3.5 | 0.00 | 1.51 | 0.42 | 95 | 1012.1 |
| 20260509205005 | 73 | 325 | 0.9 | 3.5 | 0.00 | 1.51 | 0.42 | 95 | 1012.1 |
| 20260509204505 | 73 | 355 | 0.0 | 4.3 | 0.01 | 1.51 | 0.42 | 96 | 1012.0 |
| 20260509204004 | 73 | 345 | 0.0 | 4.3 | 0.18 | 1.51 | 0.42 | 96 | 1012.2 |
| 20260509203504 | 73 | 195 | 0.0 | 2.6 | 0.40 | 1.51 | 0.42 | 96 | 1012.2 |
| 20260509203005 | 73 | 11 | 0.0 | 1.7 | 0.41 | 1.51 | 0.42 | 96 | 1012.1 |
| 20260509202504 | 72 | 331 | 0.0 | 2.6 | 0.41 | 1.51 | 0.42 | 95 | 1012.1 |
| 20260509202004 | 72 | 295 | 0.9 | 1.7 | 0.42 | 1.51 | 0.42 | 95 | 1012.2 |
| 20260509201504 | 72 | 192 | 0.0 | 0.0 | 0.42 | 1.51 | 0.42 | 94 | 1011.7 |
| 20260509201006 | 72 | 192 | 0.0 | 0.0 | 0.42 | 1.51 | 0.42 | 94 | 1011.8 |
| 20260509200508 | 72 | 192 | 0.0 | 0.9 | 0.42 | 1.51 | 0.42 | 94 | 1011.8 |
| 20260509200006 | 72 | 192 | 0.0 | 3.5 | 0.42 | 1.51 | 0.42 | 93 | 1011.8 |
| 20260509195504 | 72 | 192 | 1.7 | 7.8 | 0.42 | 1.51 | 0.42 | 92 | 1011.8 |
| 20260509195004 | 72 | 312 | 2.6 | 15.6 | 0.42 | 1.51 | 0.42 | 91 | 1011.7 |
| 20260509194505 | 73 | 333 | 5.2 | 15.6 | 0.41 | 1.50 | 0.41 | 89 | 1011.5 |
| 20260509194011 | 76 | 360 | 4.3 | 9.6 | 0.24 | 1.33 | 0.24 | 85 | 1012.4 |
| 20260509193505 | 80 | 281 | 0.9 | 8.7 | 0.02 | 1.11 | 0.02 | 87 | 1012.3 |
| 20260509193005 | 81 | 355 | 0.0 | 0.0 | 0.01 | 1.10 | 0.01 | 85 | 1011.9 |
| 20260509192504 | 82 | 355 | 0.0 | 0.9 | 0.01 | 1.10 | 0.01 | 84 | 1011.8 |
| 20260509192004 | 82 | 355 | 0.0 | 0.9 | 0.00 | 1.09 | 0.00 | 81 | 1011.7 |
| 20260509191504 | 83 | 355 | 0.0 | 2.6 | 0.00 | 1.09 | 0.00 | 78 | 1011.2 |
| 20260509191006 | 83 | 339 | 0.0 | 2.6 | 0.00 | 1.09 | 0.00 | 76 | 1011.6 |
| 20260509190507 | 84 | 347 | 0.0 | 1.7 | 0.00 | 1.09 | 0.00 | 75 | 1011.5 |
| 20260509190006 | 84 | 347 | 0.0 | 2.6 | 0.00 | 1.09 | 0.00 | 73 | 1011.5 |
| 20260509185504 | 84 | 355 | 0.9 | 2.6 | 0.00 | 1.09 | 0.00 | 73 | 1011.6 |
| 20260509185003 | 84 | 312 | 0.0 | 2.6 | 0.00 | 1.09 | 0.00 | 72 | 1011.7 |
| 20260509184510 | 85 | 345 | 0.9 | 2.6 | 0.00 | 1.09 | 0.00 | 73 | 1011.8 |
| 20260509184005 | 85 | 335 | 0.0 | 2.6 | 0.00 | 1.09 | 0.00 | 72 | 1011.8 |
| 20260509183503 | 85 | 285 | 0.9 | 2.6 | 0.00 | 1.09 | 0.00 | 72 | 1012.0 |
| 20260509183004 | 85 | 15 | 0.9 | 2.6 | 0.00 | 1.09 | 0.00 | 72 | 1011.8 |
| 20260509182504 | 85 | 17 | 0.9 | 3.5 | 0.00 | 1.09 | 0.00 | 74 | 1012.1 |
| 20260509182003 | 85 | 211 | 0.0 | 3.5 | 0.00 | 1.09 | 0.00 | 72 | 1012.2 |
| 20260509181503 | 85 | 351 | 0.9 | 3.5 | 0.00 | 1.09 | 0.00 | 72 | 1012.3 |
| 20260509181004 | 85 | 355 | 0.9 | 2.6 | 0.00 | 1.09 | 0.00 | 73 | 1012.4 |
| 20260509180503 | 84 | 325 | 0.0 | 2.6 | 0.00 | 1.09 | 0.00 | 75 | 1012.4 |
| 20260509180005 | 84 | 325 | 0.0 | 2.6 | 0.00 | 1.09 | 0.00 | 76 | 1012.5 |
| 20260509175506 | 84 | 20 | 1.7 | 2.6 | 0.00 | 1.09 | 0.00 | 74 | 1012.6 |
| 20260509175003 | 84 | 329 | 0.9 | 3.5 | 0.00 | 1.09 | 0.00 | 74 | 1012.7 |
| 20260509174503 | 84 | 193 | 0.0 | 3.5 | 0.00 | 1.09 | 0.00 | 76 | 1012.7 |
| 20260509174003 | 84 | 310 | 0.0 | 0.9 | 0.00 | 1.09 | 0.00 | 74 | 1012.7 |
| 20260509173503 | 84 | 310 | 0.0 | 2.6 | 0.00 | 1.09 | 0.00 | 75 | 1012.7 |
| 20260509173003 | 84 | 310 | 0.0 | 2.6 | 0.00 | 1.09 | 0.00 | 75 | 1012.7 |
| 20260509172504 | 84 | 355 | 0.0 | 2.6 | 0.00 | 1.09 | 0.00 | 76 | 1012.8 |
| 20260509172003 | 83 | 320 | 0.9 | 3.5 | 0.00 | 1.09 | 0.00 | 76 | 1012.8 |